Hourly Weather Roundup
Issued by NWS Central Illinois

Home | Current Version | Previous Version | Text Only | Print | Product List | Glossary On
Versions: 1 2 3 4 5 6 7 8 9 10 11 12 13 14 15 16 17 18 19 20 21 22 23 24 25 26 27 28 29 30 31 32 33 34 35 36 37 38 39 40 41 42 43 44 45 46 47 48 49 50
000
NZUS43 KILX 231910
HWRILX

AREA WEATHER ROUNDUP
NATIONAL WEATHER SERVICE, LINCOLN IL
200 PM CDT TUE AUG 23 2016


CITY           SKY/WX    TMP DP  RH WIND       PRES   REMARKS
BLOOMINGTON    MOSUNNY   79  64  60 S17       30.18F HX  81
CHAMPAIGN      MOSUNNY   78  63  59 S10       30.20F HX  80
DANVILLE       PTSUNNY   78  63  59 S10       30.19F HX  80
DECATUR        CLOUDY    80  64  58 S10       30.19F HX  82
EFFINGHAM      CLOUDY    81  67  63 S9        30.23S HX  83
FLORA          MOSUNNY   82  66  58 S14       30.22F HX  84
GALESBURG      CLOUDY    77  65  65 S12       30.12F
JACKSONVILLE   CLOUDY    75  67  76 S12G21    30.15F
LACON          MOSUNNY   80  62  53 SE17      30.13F HX  81
LAWRENCEVILLE  SUNNY     82  61  48 S10       30.22F HX  83
LITCHFIELD     CLOUDY    73  64  72 S13       30.20S
$$


CITY           SKY/WX    TMP DP  RH WIND       PRES   REMARKS
LINCOLN        PTSUNNY   80  66  62 S14       30.17S HX  82
MACOMB         CLOUDY    78  66  67 S20G25    30.14F HX  80
MATTOON        PTSUNNY   79  62  56 S10       30.21S HX  80
MT CARMEL AP   SUNNY     82  60  48 S8        30.22S HX  82
OLNEY-NOBLE AP MOSUNNY   81  64  57 S9        30.23S HX  82
PARIS          SUNNY     78  65  63 SE7       30.21F HX  80
PEORIA         CLOUDY    80  64  58 S15       30.15S HX  82
PONTIAC        MOSUNNY   80  65  60 S13       30.18F HX  82
RANTOUL        SUNNY     80  64  57 S9        30.19F HX  82
ROBINSON       SUNNY     79  65  61 S9        30.22F HX  81
SPRINGFIELD    CLOUDY    79  64  60 S14G23    30.17F HX  81
TAYLORVILLE    CLOUDY    77  65  65 S12G20    30.19F
$$

...REGIONAL REPORTS...


CITY           SKY/WX    TMP DP  RH WIND       PRES   REMARKS
CHICAGO O`HARE PTSUNNY   80  61  52 S12       30.16F HX  81
KANKAKEE       PTSUNNY   80  63  56 S10G17    30.20S HX  81
MOLINE         CLOUDY    78  64  61 S12       30.10F HX  80
MOUNT STERLING CLOUDY    74  67  79 S13G18    30.13S
MOUNT VERNON   CLOUDY    81  63  54 S9        30.22F HX  82
PITTSFIELD     CLOUDY    74  69  83 S9        30.15F
QUINCY         CLOUDY    76  70  82 SE13      30.11F
ROCKFORD       MOSUNNY   80  62  54 S14       30.15F HX  81
$$


CITY           SKY/WX    TMP DP  RH WIND       PRES   REMARKS
BURLINGTON     CLOUDY    77  67  71 SE15      30.10F
CEDAR RAPIDS   PTSUNNY   79  69  71 S12G22    30.05F HX  81
DES MOINES     CLOUDY    79  69  71 S20       29.98F HX  81
KIRKSVILLE     PTSUNNY   80  70  71 S17       30.07F HX  83
OTTUMWA        PTSUNNY   81  68  64 S13       30.03F HX  84
ST LOUIS       CLOUDY    77  67  71 S14       30.17F
$$


CITY           SKY/WX    TMP DP  RH WIND       PRES   REMARKS
TERRE HAUTE    MOSUNNY   82  60  47 S10       30.22F HX  82
EVANSVILLE     MOSUNNY   80  61  52 S6        30.23S HX  81
INDIANAPOLIS   PTSUNNY   80  60  50 S10G17    30.23  HX  81
LAFAYETTE      PTSUNNY   79  61  53 SW9       30.21F HX  80
MADISON        PTSUNNY   79  61  53 S17       30.10F HX  80
MILWAUKEE      PTSUNNY   83  59  44 S15       30.14F HX  83
$$






USA.gov is the U.S. government's official web portal to all federal, state and local government web resources and services.